Location: Bednik
(45.3500°N, 16.3833°E)
Time: 10:32:16
(UTC+00:00)

Cosmos 2219 Rocket - Pass Details

Date: 08 August 2020
Orbit: 826 x 848 km, 71.0° (Epoch: 20 September)

Event Time Altitude Azimuth Distance (km) Brightness Sun altitude
Rises 23:31:46 0° 329° (NNW) 3,416 6.1 -28.4°
Reaches altitude 10° 23:34:17 10° 325° (NW) 2,478 5.1 -28.4°
Enters shadow 23:38:46 45° 283° (WNW) 1,147 2.8 -28.2°
